• In Netherlands
  • List of Countries
  • For 7 days
  • Water Temperature
  • Satellite Maps
  • Weather Map
  • Weather Widgets
  • user-avatar
    Login

    Hourly Weather Batina

    Today, 24 September, Sunday

    Time Temperature Precipitation Wind Pressure Humidity
    00:00 +20°C° 0 mm 2 mps 674 mmHg 48%
    01:00 +20°C° 0.1 mm 2 mps 674 mmHg 49%
    02:00 +19°C° 0.1 mm 2 mps 673 mmHg 51%
    03:00 +19°C° 0.1 mm 2 mps 673 mmHg 52%
    04:00 +19°C° 0.3 mm 2 mps 673 mmHg 54%
    05:00 +20°C° 0.3 mm 1 mps 673 mmHg 55%
    06:00 +19°C° 0.3 mm 1 mps 673 mmHg 57%
    07:00 +21°C° 0 mm 1 mps 674 mmHg 51%
    08:00 +22°C° 0 mm 1 mps 675 mmHg 46%
    09:00 +24°C° 0 mm 2 mps 675 mmHg 40%
    10:00 +24°C° 0 mm 2 mps 675 mmHg 38%
    11:00 +25°C° 0 mm 2 mps 675 mmHg 36%
    12:00 +26°C° 0 mm 3 mps 676 mmHg 34%
    13:00 +26°C° 0 mm 3 mps 675 mmHg 33%
    14:00 +27°C° 0 mm 3 mps 675 mmHg 33%
    15:00 +27°C° 0 mm 4 mps 675 mmHg 33%
    16:00 +26°C° 0 mm 4 mps 675 mmHg 36%
    17:00 +25°C° 0 mm 4 mps 675 mmHg 40%
    18:00 +24°C° 0 mm 3 mps 674 mmHg 44%
    19:00 +22°C° 0 mm 3 mps 675 mmHg 48%
    20:00 +22°C° 0 mm 3 mps 675 mmHg 52%
    21:00 +21°C° 0 mm 2 mps 675 mmHg 56%
    22:00 +20°C° 0 mm 2 mps 675 mmHg 60%
    23:00 +20°C° 0 mm 2 mps 675 mmHg 63%

    Tomorrow, 25 September, Monday

    Time Temperature Precipitation Wind Pressure Humidity
    00:00 +19°C° 0 mm 2 mps 674 mmHg 66%
    01:00 +19°C° 0 mm 2 mps 674 mmHg 68%
    02:00 +19°C° 0 mm 1 mps 674 mmHg 70%
    03:00 +19°C° 0 mm 1 mps 673 mmHg 72%
    04:00 +19°C° 0 mm 1 mps 673 mmHg 72%
    05:00 +19°C° 0 mm 1 mps 673 mmHg 72%
    06:00 +17°C° 0 mm 0 mps 673 mmHg 72%
    07:00 +20°C° 0 mm 1 mps 674 mmHg 64%
    08:00 +21°C° 0 mm 1 mps 674 mmHg 57%
    09:00 +22°C° 0 mm 1 mps 675 mmHg 50%
    10:00 +23°C° 0 mm 2 mps 675 mmHg 43%
    11:00 +24°C° 0 mm 2 mps 675 mmHg 37%
    12:00 +25°C° 0 mm 2 mps 675 mmHg 31%
    13:00 +26°C° 0 mm 3 mps 675 mmHg 29%
    14:00 +26°C° 0 mm 3 mps 675 mmHg 27%
    15:00 +27°C° 0 mm 3 mps 674 mmHg 25%
    16:00 +26°C° 0 mm 3 mps 674 mmHg 25%
    17:00 +25°C° 0 mm 3 mps 674 mmHg 26%
    18:00 +24°C° 0 mm 3 mps 674 mmHg 27%
    19:00 +24°C° 0 mm 2 mps 674 mmHg 30%
    20:00 +23°C° 0 mm 2 mps 674 mmHg 32%
    21:00 +22°C° 0 mm 1 mps 674 mmHg 35%
    22:00 +21°C° 0 mm 1 mps 674 mmHg 37%
    23:00 +21°C° 0 mm 1 mps 674 mmHg 40%

    Day after tomorrow, 26 September, Tuesday

    Time Temperature Precipitation Wind Pressure Humidity
    00:00 +20°C° 0 mm 1 mps 674 mmHg 42%
    01:00 +20°C° 0 mm 1 mps 673 mmHg 43%
    02:00 +19°C° 0 mm 1 mps 673 mmHg 45%
    03:00 +17°C° 0 mm 0 mps 673 mmHg 46%
    04:00 +16°C° 0 mm 0 mps 673 mmHg 48%
    05:00 +16°C° 0 mm 0 mps 673 mmHg 49%
    06:00 +16°C° 0 mm 0 mps 673 mmHg 50%
    07:00 +20°C° 0 mm 1 mps 674 mmHg 44%
    08:00 +22°C° 0 mm 1 mps 674 mmHg 39%
    09:00 +23°C° 0 mm 2 mps 675 mmHg 33%
    10:00 +24°C° 0 mm 2 mps 675 mmHg 30%
    11:00 +25°C° 0 mm 2 mps 675 mmHg 27%
    12:00 +26°C° 0 mm 2 mps 675 mmHg 25%
    13:00 +26°C° 0 mm 2 mps 675 mmHg 24%
    14:00 +26°C° 0 mm 3 mps 675 mmHg 24%
    15:00 +27°C° 0 mm 3 mps 674 mmHg 24%
    16:00 +26°C° 0 mm 3 mps 674 mmHg 26%
    17:00 +25°C° 0 mm 2 mps 674 mmHg 28%
    18:00 +25°C° 0 mm 2 mps 674 mmHg 30%
    19:00 +24°C° 0 mm 2 mps 674 mmHg 33%
    20:00 +23°C° 0 mm 1 mps 674 mmHg 36%
    21:00 +22°C° 0 mm 1 mps 675 mmHg 38%
    22:00 +22°C° 0 mm 1 mps 674 mmHg 40%
    23:00 +19°C° 0 mm 0 mps 674 mmHg 42%

    27 September, Wednesday

    Time Temperature Precipitation Wind Pressure Humidity
    00:00 +19°C° 0 mm 0 mps 674 mmHg 44%
    01:00 +18°C° 0 mm 0 mps 674 mmHg 45%
    02:00 +18°C° 0 mm 0 mps 673 mmHg 46%
    03:00 +20°C° 0 mm 1 mps 673 mmHg 47%
    04:00 +20°C° 0 mm 1 mps 673 mmHg 49%
    05:00 +20°C° 0 mm 1 mps 674 mmHg 50%
    06:00 +19°C° 0 mm 1 mps 674 mmHg 52%
    07:00 +20°C° 0 mm 2 mps 674 mmHg 47%
    08:00 +21°C° 0 mm 2 mps 675 mmHg 42%
    09:00 +24°C° 0 mm 2 mps 676 mmHg 37%
    10:00 +25°C° 0 mm 3 mps 676 mmHg 35%
    11:00 +26°C° 0 mm 3 mps 676 mmHg 33%
    12:00 +27°C° 0 mm 4 mps 676 mmHg 30%
    13:00 +27°C° 0 mm 4 mps 676 mmHg 30%
    14:00 +27°C° 0 mm 4 mps 676 mmHg 30%
    15:00 +27°C° 0 mm 5 mps 675 mmHg 30%
    16:00 +26°C° 0 mm 5 mps 675 mmHg 33%
    17:00 +25°C° 0 mm 4 mps 675 mmHg 36%
    18:00 +23°C° 0 mm 4 mps 675 mmHg 40%
    19:00 +22°C° 0 mm 4 mps 675 mmHg 45%
    20:00 +21°C° 0 mm 3 mps 675 mmHg 50%
    21:00 +20°C° 0 mm 2 mps 676 mmHg 56%
    22:00 +19°C° 0 mm 2 mps 675 mmHg 59%
    23:00 +19°C° 0 mm 2 mps 675 mmHg 63%

    28 September, Thursday

    Time Temperature Precipitation Wind Pressure Humidity
    00:00 +18°C° 0 mm 2 mps 675 mmHg 66%
    01:00 +18°C° 0 mm 2 mps 675 mmHg 69%
    02:00 +17°C° 0 mm 2 mps 675 mmHg 72%
    03:00 +17°C° 0 mm 2 mps 674 mmHg 75%
    04:00 +16°C° 0 mm 2 mps 675 mmHg 76%
    05:00 +16°C° 0 mm 2 mps 675 mmHg 77%
    06:00 +16°C° 0 mm 2 mps 675 mmHg 78%
    07:00 +17°C° 0 mm 2 mps 676 mmHg 68%
    08:00 +18°C° 0 mm 2 mps 676 mmHg 58%
    09:00 +19°C° 0 mm 3 mps 677 mmHg 48%
    10:00 +20°C° 0 mm 3 mps 677 mmHg 42%
    11:00 +21°C° 0 mm 3 mps 677 mmHg 37%
    12:00 +22°C° 0 mm 3 mps 677 mmHg 31%
    13:00 +23°C° 0 mm 4 mps 677 mmHg 30%
    14:00 +23°C° 0 mm 4 mps 676 mmHg 29%
    15:00 +23°C° 0 mm 4 mps 676 mmHg 28%
    16:00 +22°C° 0 mm 4 mps 676 mmHg 33%
    17:00 +21°C° 0 mm 4 mps 676 mmHg 37%
    18:00 +20°C° 0 mm 4 mps 676 mmHg 42%
    19:00 +19°C° 0 mm 4 mps 676 mmHg 48%
    20:00 +19°C° 0 mm 3 mps 676 mmHg 53%
    21:00 +18°C° 0 mm 3 mps 676 mmHg 59%
    22:00 +17°C° 0 mm 3 mps 676 mmHg 62%
    23:00 +17°C° 0 mm 3 mps 676 mmHg 65%

    29 September, Friday

    Time Temperature Precipitation Wind Pressure Humidity
    00:00 +16°C° 0 mm 2 mps 675 mmHg 68%
    01:00 +16°C° 0 mm 2 mps 675 mmHg 70%
    02:00 +15°C° 0 mm 2 mps 675 mmHg 72%
    03:00 +15°C° 0 mm 2 mps 675 mmHg 73%
    04:00 +15°C° 0 mm 1 mps 675 mmHg 74%
    05:00 +15°C° 0 mm 1 mps 675 mmHg 75%
    06:00 +14°C° 0 mm 1 mps 675 mmHg 75%
    07:00 +15°C° 0 mm 1 mps 675 mmHg 67%
    08:00 +18°C° 0 mm 1 mps 676 mmHg 59%
    09:00 +19°C° 0 mm 1 mps 676 mmHg 51%
    10:00 +19°C° 0 mm 2 mps 676 mmHg 44%
    11:00 +20°C° 0 mm 2 mps 676 mmHg 38%
    12:00 +21°C° 0 mm 2 mps 676 mmHg 31%
    13:00 +22°C° 0 mm 3 mps 676 mmHg 29%
    14:00 +22°C° 0 mm 3 mps 675 mmHg 28%
    15:00 +22°C° 0 mm 3 mps 675 mmHg 26%
    16:00 +22°C° 0 mm 3 mps 675 mmHg 29%
    17:00 +21°C° 0 mm 3 mps 675 mmHg 33%
    18:00 +20°C° 0 mm 3 mps 675 mmHg 36%
    19:00 +19°C° 0 mm 3 mps 675 mmHg 42%
    20:00 +19°C° 0 mm 3 mps 675 mmHg 47%
    21:00 +18°C° 0 mm 2 mps 675 mmHg 53%
    22:00 +17°C° 0 mm 2 mps 675 mmHg 56%
    23:00 +17°C° 0 mm 2 mps 675 mmHg 60%
    Show more